Regional Weather Roundup
Issued by NWS Grand Forks, ND

Home | Current Version | Previous Version | Text Only | Print | Product List | Glossary Off
Versions: 1 2 3 4 5 6 7 8 9 10 11 12 13 14 15 16 17 18 19 20 21 22 23 24 25 26 27 28 29 30 31 32 33 34 35 36 37 38 39 40 41 42 43 44 45 46 47 48 49 50

000
ASUS43 KFGF 220910
RWRFGF
PRAIRIE TO PINES  WEATHER ROUNDUP
NATIONAL WEATHER SERVICE EASTERN NORTH DAKOTA/GRAND FORKS ND
400 AM CDT MON MAY 22 2017

 **SATELLITE DATA USED TO AUGMENT SKY COVER AT AUTOMATED STATIONS**
 *****  WEATHER ACROSS EASTERN NORTH DAKOTA  *****

CITY           SKY/WX    TMP DP  RH WIND       PRES   REMARKS
GRAND FORKS    LGT RAIN  47  44  90 W10       29.84F
GRAND FRKS AFB MOCLDY    46  43  89 NW8       29.85S
DEVILS LAKE    FAIR      45  42  89 NW7       29.90S
FARGO          FAIR      42  40  92 W8        29.87F
WAHPETON ARPT  FAIR      37  34  87 NW5       29.89S
$$

 ***** WEATHER ACROSS CENTRAL AND WESTERN NORTH DAKOTA  *****

CITY           SKY/WX    TMP DP  RH WIND       PRES   REMARKS
BISMARCK       FAIR      38  34  85 E3        29.89F
MINOT          CLOUDY    47  39  74 CALM      29.92S
JAMESTOWN      FAIR      42  39  89 NW3       29.88F
MINOT AFB      CLOUDY    49  38  65 CALM      29.92S
GARRISON         N/A     45  37  73 NE8       29.89F
WILLISTON      CLOUDY    51  41  68 NW13      29.96R
DICKINSON      CLOUDY    48  43  82 NW10      29.95S
HETTINGER      CLOUDY    49  41  74 W16G23    29.98F
$$

 *****  OTHER AIRPORT OBSERVATIONS IN OUR AREA  *****

CITY           SKY/WX    TMP DP  RH WIND       PRES   REMARKS
WALHALLA       NOT AVBL
GRAFTON AIRPOR CLOUDY    46  46 100 NW10      29.86S
VALLEY CITY AR NOT AVBL
CANDO          NOT AVBL
CAVALIER APRT  FAIR      48  43  81 NW10      29.83F
GWINNER        PTSUNNY   43  43 100 MISG      29.89S
SHEYENNE NWR     N/A     41  40  96 N3        29.95S
ROLLA          CLOUDY    45  37  76 NW9       29.91S
 ***** THE ABOVE OBSERVATIONS ARE NON NWS ARE NOT QUALITY
       CONTROLLED AND MAY MIS-REPORT RAIN FOR SNOW...
$$

  *****  WEATHER ACROSS NORTHERN MINNESOTA  *****

CITY           SKY/WX    TMP DP  RH WIND       PRES   REMARKS
FLAG ISLAND    CLOUDY    46  43  87 NW15      29.75F
WARROAD        CLOUDY    45  41  87 NW8       29.78S
ROSEAU         CLOUDY    45  41  87 NW8       29.78F
HALLOCK        DRIZZLE   48  45  87 NW9       29.81F
THF RVR FALLS  LGT RAIN  45  44  97 NW12      29.82S
BAUDETTE       CLOUDY    45  43  93 NW8       29.74F
WASKISH        CLOUDY    45  43  93 W8        29.76S
CROOKSTON      CLOUDY    45  45 100 NW12      29.84S
STEPHEN NDAWN    N/A     46  45  93 W9          N/A
GREENBUSH NDAW   N/A     45  45 100 W5          N/A
$$
  *****  WEATHER ACROSS CENTRAL AND WEST MINNESOTA  *****

CITY           SKY/WX    TMP DP  RH WIND       PRES   REMARKS
FOSSTON        RAIN      43  43 100 W10       29.81F
BEMIDJI        LGT RAIN  43  43  99 W7        29.78S
PARK RAPIDS    CLOUDY    45  39  79 W13       29.80F
ELBOW LAKE     FAIR      40  40  98 CALM      29.88S
WADENA         MOCLDY    43  41  93 W8        29.84S
DETROIT LAKES  CLOUDY    43  41  93 W10       29.86S
MOORHEAD       CLOUDY    43  39  87 W8        29.88F
FERGUS FALLS   MOCLDY    41  41 100 NW8       29.88S
MORRIS MN      FAIR      41  39  93 W5        29.87F
STAPLES        MOCLDY    43  41  93 W7        29.84F
$$
  *****  WEATHER ELSEWHERE ACROSS MINNESOTA  *****

CITY           SKY/WX    TMP DP  RH WIND       PRES   REMARKS
DULUTH         CLOUDY    45  42  89 W12       29.76S
INTRNTL FALLS  CLOUDY    45  42  89 NW7       29.72S
ELY            CLOUDY    45  43  93 W7        29.72S
CLOQUET        CLOUDY    45  41  87 W8        29.78S
WHEATON        FAIR      41  37  87 CALM      29.90F
BRAINERD       MOCLDY    43  42  97 W8        29.83F
HIBBING        CLOUDY    43  42  97 W5        29.75S
ALEXANDRIA     FAIR      42  40  92 W8        29.88S
SAINT CLOUD    FAIR      41  41 100 SW5       29.86F
MINNEAPOLIS    CLOUDY    45  41  86 SW8       29.89F
$$

  *****  WEATHER ACROSS SOUTH DAKOTA  *****

CITY           SKY/WX    TMP DP  RH WIND       PRES   REMARKS
SIOUX FALLS    CLOUDY    52  45  77 W6        29.91F
BROOKINGS      FAIR      45  42  89 S3        29.89F
WATERTOWN      FAIR      39  37  92 CALM      29.88S
HURON          FAIR      43  41  93 W6        29.91F
SISSETON         N/A     42  39  89 CALM      29.87F
ABERDEEN       FOG       36  33  89 SE3       29.89F VSB 3/4
MITCHELL       FAIR      50  45  83 W9        29.92F
PIERRE         FAIR      46  42  86 W12       29.94F
MOBRIDGE       FAIR      44  39  82 S6        29.87F
RAPID CITY     FAIR      42  36  79 W7        30.03F
$$

  *****  SOME WEATHER IN NEARBY STATES *****

CITY           SKY/WX    TMP DP  RH WIND       PRES   REMARKS
GLASGOW MT     FAIR      45  42  89 N8        30.03F
GREAT FALLS MT CLOUDY    51  41  68 SW5       30.18R
CHEYENNE WY    FAIR      37  32  82 W10       30.22F
SCOTTSBLUFF NE FAIR      41  32  70 W6        30.15F
OMAHA NE       FAIR      51  45  79 SE8       29.99F
DES MOINES IA  FAIR      51  43  74 SW12      29.99F
DAVENPORT IA   FAIR      47  41  80 SW7       30.02F
CHICAGO IL     FAIR      50  42  74 W13       29.99S
EAU CLAIRE WI  CLOUDY    45  43  93 W8        29.88S
LA CROSSE WI   CLOUDY    49  41  74 SW9       29.93F
$$

  *****  SOME NATIONAL WEATHER *****

CITY           SKY/WX    TMP DP  RH WIND       PRES   REMARKS
LA GUARDIA NY  LGT RAIN  57  50  77 NE5       30.18S
RALEIGH NC     LGT RAIN  69  66  90 SE7       30.05F
ATLANTA GA     FAIR      70  67  90 CALM      30.06S
NEW ORLEANS LA CLOUDY    72  69  90 N7        30.02F
OKLAHOMA CITY  MOCLDY    54  51  90 S5        30.12F
ALBUQUERQUE NM FAIR      60  20  21 NW9       30.14S
SALT LAKE CITY FAIR      52  43  71 S7        30.24S
LOS ANGELES CA MOCLDY    61  59  93 W6        29.95F
BOISE ID       FAIR      56  47  71 SE9       30.18S
SEATTLE WA     FAIR      63  48  58 NE10      30.18S
$$

*** WEATHER ACROSS MANITOBA...SASKATCHEWAN AND ONTARIO ***
                ***ONTARIO***

CITY           SKY/WX    TMP DP  RH WIND       PRES   REMARKS
GERALDTON      CLOUDY    46  45  93 SE6       29.64F FOG
THUNDER BAY    MOCLDY    45  45 100 SW8       29.66F
SIOUX LOOKOUT  LGT RAIN  43  43 100 NW3       29.68F FOG
TORONTO        FOG       54  52  94 CALM      29.90S VSB 1/2
BIG TROUT LK   MOCLDY    46  36  66 E9        29.93S
PICKLE LAKE    NOT AVBL
DRYDEN         LGT RAIN  43  43 100 N6        29.69S
KENORA         LGT RAIN  43  41  93 N8        29.74F
$$
                *** MANITOBA***

CITY           SKY/WX    TMP DP  RH WIND       PRES   REMARKS
BRANDON        CLOUDY    46  37  71 NW12      29.93R
DAUPHIN        CLOUDY    46  37  71 W7        29.94S
ISLAND LAKE    NOT AVBL
PILOT MOUND      N/A     46  37  71 NW9         N/A
THE PAS        MOCLDY    45  34  65 N5        30.03R
THOMPSON       MOCLDY    41  32  70 NE12      30.07R
WINNIPEG       CLOUDY    46  45  93 N10       29.83S
LYNN LAKE      MOCLDY    43  32  65 NE7       30.14S
CHURCHILL      FOG       30  30 100 NE14      30.26S VSB 1/2 WCI  20
$$
                ***SASKATCHEWAN***

CITY           SKY/WX    TMP DP  RH WIND       PRES   REMARKS
ESTEVAN        MOCLDY    48  43  81 E5        29.95S
KINDERSLEY     PTCLDY    41  36  81 N8        30.11S
LLOYDMINSTER   CLEAR     45  43  93 CALM      30.15S
PRINCE ALBERT  PTCLDY    43  37  81 CALM      30.07R
REGINA         MOCLDY    46  41  81 NW10      30.00S
YORKTON        PTCLDY    43  37  81 E3        29.98F
N. BATTLEFORD  CLEAR     41  37  87 N8        30.14R
LA RONGE       PTCLDY    39  36  87 CALM      30.11R
SASKATOON      CLEAR     39  36  87 NW9       30.09S
SWIFT CURRENT  PTCLDY    45  39  81 W8        30.06S
$$
NOTE: THESE ARE AUTOMATED STATIONS WITH LIMITED QUALITY CONTROL
      "FAIR" INDICATES FEW OR NO CLOUDS BELOW 12,000 FEET WITH NO
      SIGNIFICANT WEATHER AND/OR OBSTRUCTIONS TO VISIBILITY.
      SKY/WX - SKY CONDITION AND SIGNIFICANT WEATHER.
      TMP - AIR TEMPERATURE.    DP   - DEWPOINT TEMPERATURE.
      RH  - RELATIVE HUMIDITY.  PRES - PRESSURE.
      HX  - HEAT INDEX.         WCI  - WIND CHILL INDEX.
$




USA.gov is the U.S. government's official web portal to all federal, state and local government web resources and services.